Other Surface Observations
Issued by NWS Charleston, SC

Home | Current Version | Previous Version | Text Only | Print | Product List | Glossary On
Versions: 1 2 3 4 5 6 7 8 9 10 11 12 13 14 15 16 17 18 19 20 21 22 23 24 25 26 27 28 29 30 31 32 33 34 35 36 37 38 39 40 41 42 43 44 45 46 47 48 49 50
000
SXUS52 KCHS 191425
OSOCHS

MARINE OBSERVATIONS
NATIONAL WEATHER SERVICE CHARLESTON SC
1000 AM EDT FRI SEP 19 2014

...DOWNTOWN CHARLESTON AND HARBOR...

CITY           SKY/WX    TMP DP  RH WIND       PRES   REMARKS
WATERFRONT PRK   N/A     75 N/A N/A E12         N/A
FORT JOHNSON   NOT AVBL

...LAKE MOULTRIE...

CITY           SKY/WX    TMP DP  RH WIND       PRES   REMARKS
PINOPOLIS        N/A     75  70  83 E7        30.00R

...LAKE AND SUPPLEMENTAL COASTAL OBSERVATIONS...

STATION/POSITION TIME  TEMP    WIND        PRES    WAVE   SWELL
                       AIR SEA DIR/SP/G            HT/PER HT/PER/DIR
                 (UTC) (F)     (DEG/KT/KT) (MB)    (FT/S) (FT/S/D)
FORT PULASKI     1400   80      70/ 10/ 13 1017.3R
SAPELO ISLAND    1400   82      50/  7     1017.0S
UPR LAKE MARION  NOT AVBL
WINYAH BAY       1400   79      70/ 13     1018.0S
LAKE MURRAY      1300   66     350/  3/  5 1019.0R
ACE BASIN NERRS  1400   75      60/  2     1017.0S


...C-MAN AND BUOY OBSERVATIONS...

STATION/POSITION TIME  TEMP    WIND        PRES    WAVE   SWELL
                       AIR SEA DIR/SP/G            HT/PER HT/PER/DIR
                 (UTC) (F)     (DEG/KT/KT) (MB)    (FT/S) (FT/S/D)
BUOY 41004       1400   80 82   70/ 14/ 23 1016.9R   4/ 6   2/ 9
BUOY 41008       1400   81 84   70/ 10/ 12 1016.6R   2/ 9   2/110/ 9
FOLLY BEACH CMAN 1400   75      90/ 19/ 21 1018.6R
CAPERS NS BUOY   1300   76      90/ 12/ 17   N/A
FRIPP NS BUOY    NOT AVBL
5E ST. MARYS GA  1400      84                N/A     2/ 9   2/ 90/11
FRYING PAN BUOY  NOT AVBL
BUOY 41025       1400   77      60/ 16/ 21 1020.5R   6/ 6   2/ 60/ 8
CAPE LOOKOUT NC  1400   75      50/ 22/ 24 1020.3S
BUOY 41002       1252   79 82   80/ 16/ 17 1018.5    4/ 6   2/ 80/ 9
BUOY 41010       1400   82 85   80/ 10/ 14 1015.6R   3/10   3/ 50/10
BUOY 41012       NOT AVBL
ST AUGUSTINE FL  1400   82      80/  8/  9 1016.3R


$$



USA.gov is the U.S. government's official web portal to all federal, state and local government web resources and services.